Stations météo

réclame
Mon MeteoGroup
Cardinham, Grande-Bretagne (3823): Température de l'air & dewpoint: 19.11.2017 01:00:00 - 25.11.2017 01:00:00 (GMT)Cardinham, Grande-Bretagne (3823): Vitesse du vent & gusts: 19.11.2017 01:00:00 - 25.11.2017 01:00:00 (GMT)Cardinham, Grande-Bretagne (3823): Direction du vent: 19.11.2017 01:00:00 - 25.11.2017 01:00:00 (GMT)Cardinham, Grande-Bretagne (3823): reduced air pressure: 19.11.2017 01:00:00 - 25.11.2017 01:00:00 (GMT)Cardinham, Grande-Bretagne (3823): visibility: 19.11.2017 01:00:00 - 25.11.2017 01:00:00 (GMT)Cardinham, Grande-Bretagne (3823): Quantités de précipitations: 19.11.2017 01:00:00 - 25.11.2017 01:00:00 (GMT)
Date & Time tt [°C] td [°C] ff [km/h] ff [knt] fx [km/h] fx [knt] dd ppp [hPa] vv [km] rr [mm]
25.11.2017 01:00:00 0,9 0,5 9 5 - - W 1015,5 22 0,0
25.11.2017 00:00:00 1,3 0,8 5 3 - - N 1015,4 30 1,6
24.11.2017 23:00:00 2,7 2,0 11 6 48 26 NNW 1015,1 15 2,8
24.11.2017 22:00:00 3,8 2,9 24 13 - - NNW 1014,6 30 0,2
24.11.2017 21:00:00 3,3 0,2 9 5 - - W 1014,4 45 0,0
24.11.2017 20:00:00 3,5 0,3 5 3 - - W 1014,0 50 0,0
24.11.2017 19:00:00 2,7 0,0 5 3 - - NW 1014,0 35 0,0
24.11.2017 18:00:00 2,5 0,4 8 4 - - N 1013,9 40 0,0
24.11.2017 17:00:00 4,0 1,6 8 4 - - N 1013,6 28 0,0
24.11.2017 16:00:00 8,1 3,6 8 4 - - N 1012,9 40 0,0
24.11.2017 15:00:00 9,6 4,1 5 3 - - NW 1012,2 30 0,0
24.11.2017 14:00:00 8,2 3,1 5 3 - - N 1012,2 40 0,0
24.11.2017 13:00:00 9,4 3,8 5 3 - - NNW 1012,2 35 0,0
24.11.2017 12:00:00 9,4 3,3 8 4 - - NNE 1012,3 12 0,0
24.11.2017 11:00:00 8,5 4,4 4 2 - - NNE 1012,4 35 0,0
24.11.2017 10:00:00 5,8 5,1 5 3 - - N 1012,0 40 0,0
24.11.2017 09:00:00 4,6 4,2 9 5 - - WNW 1011,3 40 0,0
24.11.2017 08:00:00 4,4 4,0 5 3 - - NNW 1010,6 16 0,0
24.11.2017 07:00:00 4,2 3,7 2 1 - - SW 1009,6 50 0,0
24.11.2017 06:00:00 4,6 3,9 8 4 - - NE 1009,6 30 -
24.11.2017 05:00:00 4,6 4,0 4 2 - - W 1008,9 25 1,6
24.11.2017 04:00:00 5,2 4,5 15 8 - - NW 1008,4 13 0,0
24.11.2017 03:00:00 4,7 3,9 4 2 - - SSW 1007,7 27 0,0
24.11.2017 02:00:00 4,6 3,8 5 3 - - SSW 1007,6 35 0,0
24.11.2017 01:00:00 4,2 3,3 8 4 - - NNE 1006,9 16 2,4
24.11.2017 00:00:00 5,3 3,4 11 6 - - WSW 1006,4 18 0,0
23.11.2017 23:00:00 5,7 3,1 13 7 - - W 1006,2 27 0,0
23.11.2017 22:00:00 5,4 2,4 11 6 - - WSW 1005,9 30 0,0
23.11.2017 21:00:00 6,4 2,8 16 9 - - WSW 1006,3 30 0,0
23.11.2017 20:00:00 6,5 2,6 16 9 - - WSW 1006,4 35 0,0
23.11.2017 19:00:00 7,1 2,8 13 7 - - WSW 1005,8 22 0,2
23.11.2017 18:00:00 7,3 2,6 16 9 - - W 1006,1 23 0,0
23.11.2017 17:00:00 7,9 3,0 18 10 - - WSW 1005,4 20 0,0
23.11.2017 16:00:00 8,2 3,6 16 9 - - WSW 1004,6 17 0,0
23.11.2017 15:00:00 8,8 4,1 24 13 46 25 W 1004,0 15 0,0
23.11.2017 14:00:00 10,2 3,1 28 15 50 27 W 1003,1 17 0,0
23.11.2017 13:00:00 10,5 3,9 24 13 52 28 W 1002,7 14 0,0
23.11.2017 12:00:00 9,4 3,5 29 16 55 30 W 1002,0 16 0,0
23.11.2017 11:00:00 9,2 2,8 28 15 52 28 W 1001,5 20 0,0
23.11.2017 10:00:00 8,1 4,2 26 14 - - WSW 1000,3 29 0,2
23.11.2017 09:00:00 7,6 3,6 22 12 - - W 999,0 30 0,0
23.11.2017 08:00:00 6,1 3,0 21 11 - - W 997,8 30 0,0
23.11.2017 07:00:00 5,9 3,5 24 13 - - W 996,1 29 0,0
23.11.2017 06:00:00 5,3 2,7 21 11 - - WNW 994,7 30 0,0
23.11.2017 05:00:00 6,0 5,4 29 16 50 27 WNW 993,4 11 0,4
23.11.2017 04:00:00 7,2 6,9 26 14 50 27 WNW 991,5 5 1,2
23.11.2017 03:00:00 9,5 9,1 28 15 - - WNW 989,0 10 0,4
23.11.2017 02:00:00 10,8 10,2 29 16 50 27 W 987,4 19 0,6
23.11.2017 01:00:00 11,3 10,6 24 13 - - WSW 986,1 10 -
23.11.2017 00:00:00 11,1 10,4 22 12 - - WSW 985,9 12 0,0
22.11.2017 23:00:00 11,1 10,4 21 11 - - SW 985,8 12 0,0
22.11.2017 22:00:00 11,3 10,8 24 13 50 27 SW 986,1 9 0,2
22.11.2017 21:00:00 11,6 10,7 35 19 54 29 SSW 986,7 11 0,0
22.11.2017 20:00:00 12,2 10,8 39 21 65 35 SSW 986,4 9 0,0
22.11.2017 19:00:00 12,2 11,4 46 25 74 40 SSW 987,0 5 0,6
22.11.2017 18:00:00 12,6 11,6 42 23 74 40 SSW 987,7 7 0,2
22.11.2017 17:00:00 12,1 11,4 48 26 78 42 SSW 988,5 3,6 0,4
22.11.2017 16:00:00 12,8 11,2 44 24 83 45 SSW 989,2 9 0,2
22.11.2017 15:00:00 12,4 11,6 46 25 74 40 S 990,2 7 0,6
22.11.2017 14:00:00 12,9 12,2 48 26 70 38 S 991,3 5 0,0
22.11.2017 13:00:00 13,0 12,4 42 23 74 40 SSW 993,2 6 0,0
22.11.2017 12:00:00 13,0 12,4 42 23 68 37 SSW 994,7 7 0,0
22.11.2017 11:00:00 12,6 12,1 39 21 67 36 S 995,2 5 0,0
22.11.2017 10:00:00 12,8 11,9 42 23 70 38 S 996,4 7 0,0
22.11.2017 09:00:00 12,8 11,7 39 21 59 32 SSW 997,2 9 0,0
22.11.2017 08:00:00 12,7 11,8 39 21 65 35 SSW 998,1 7 0,0
22.11.2017 07:00:00 12,8 11,8 31 17 59 32 SSW 998,7 8 0,0
22.11.2017 06:00:00 12,6 11,7 37 20 55 30 SSW 999,6 8 0,0
22.11.2017 05:00:00 12,4 11,6 31 17 50 27 SSW 1000,6 8 0,0
22.11.2017 04:00:00 12,4 11,7 31 17 48 26 SSW 1001,6 7 0,0
22.11.2017 03:00:00 12,5 11,6 37 20 54 29 SSW 1002,4 9 0,0
22.11.2017 02:00:00 12,4 11,4 31 17 50 27 SSW 1003,1 11 0,0
22.11.2017 01:00:00 12,4 10,6 28 15 48 26 SW 1004,3 16 0,0
22.11.2017 00:00:00 12,5 11,3 31 17 54 29 SW 1005,2 14 0,0
21.11.2017 23:00:00 12,7 11,8 37 20 54 29 SW 1005,3 11 0,0
21.11.2017 22:00:00 12,6 11,8 34 18 52 28 SW 1005,6 10 0,0
21.11.2017 21:00:00 12,5 11,9 34 18 48 26 SW 1006,1 10 0,2
21.11.2017 20:00:00 12,2 11,9 29 16 50 27 SW 1006,5 2,2 0,4
21.11.2017 19:00:00 12,6 11,8 28 15 48 26 SW 1007,1 8 0,0
21.11.2017 18:00:00 12,9 11,4 35 19 50 27 SW 1007,4 13 0,0
21.11.2017 17:00:00 12,6 11,4 31 17 48 26 SW 1007,8 14 0,0
21.11.2017 16:00:00 12,9 11,3 29 16 - - SW 1008,4 15 0,0
21.11.2017 15:00:00 13,2 11,6 29 16 54 29 SW 1008,7 14 0,0
21.11.2017 14:00:00 13,4 11,8 28 15 46 25 SW 1009,2 16 0,0
21.11.2017 13:00:00 13,1 11,7 29 16 - - SW 1010,1 16 0,0
21.11.2017 12:00:00 12,9 11,6 21 11 - - WSW 1011,1 17 0,0
21.11.2017 11:00:00 11,8 10,8 16 9 - - SSW 1012,0 14 0,0
21.11.2017 10:00:00 10,8 10,0 11 6 - - S 1012,4 14 0,0
21.11.2017 09:00:00 10,4 9,3 11 6 - - S 1012,7 15 0,0
21.11.2017 08:00:00 10,2 8,8 8 4 - - SSW 1012,8 15 0,0
21.11.2017 07:00:00 10,4 8,9 13 7 - - WSW 1012,8 17 0,0
21.11.2017 06:00:00 10,3 8,6 13 7 - - SW 1013,2 16 0,0
21.11.2017 05:00:00 10,3 8,5 13 7 - - WSW 1013,5 18 0,0
21.11.2017 04:00:00 10,2 8,8 15 8 - - SW 1013,7 17 0,0
21.11.2017 03:00:00 9,6 9,1 8 4 - - S 1014,3 14 0,0
21.11.2017 02:00:00 9,2 9,0 9 5 - - SSE 1014,7 10 0,0
21.11.2017 01:00:00 8,4 7,9 4 2 - - E 1015,4 11 0,0
21.11.2017 00:00:00 9,0 8,3 4 2 - - ESE 1015,4 15 0,0
20.11.2017 23:00:00 10,0 8,8 15 8 - - WSW 1015,8 18 0,0
20.11.2017 22:00:00 10,3 9,2 18 10 - - WSW 1015,9 16 0,0
20.11.2017 21:00:00 11,0 9,8 21 11 - - WSW 1016,2 16 0,0
20.11.2017 20:00:00 11,0 9,8 21 11 - - WSW 1016,5 15 0,0
20.11.2017 19:00:00 11,0 9,8 16 9 - - WSW 1016,5 16 0,0
20.11.2017 18:00:00 11,1 9,6 22 12 - - WSW 1016,0 18 0,0
20.11.2017 17:00:00 11,2 9,6 22 12 - - W 1016,2 15 0,0
20.11.2017 16:00:00 11,6 9,8 21 11 - - W 1016,8 22 -
20.11.2017 15:00:00 12,2 9,7 18 10 - - W 1016,9 19 0,0
20.11.2017 14:00:00 12,4 9,8 26 14 - - WSW 1016,9 17 0,0
20.11.2017 13:00:00 13,0 10,3 26 14 - - WSW 1017,2 23 0,0
20.11.2017 12:00:00 12,0 10,0 24 13 - - W 1017,6 18 0,0
20.11.2017 11:00:00 11,5 9,8 26 14 - - W 1018,3 16 0,0
20.11.2017 10:00:00 11,1 9,6 21 11 - - WSW 1018,5 18 0,0
20.11.2017 09:00:00 10,4 9,0 16 9 - - W 1018,5 20 0,0
20.11.2017 08:00:00 10,3 8,7 18 10 - - WSW 1018,7 22 0,0
20.11.2017 07:00:00 10,1 8,9 16 9 - - WNW 1018,7 21 0,0
20.11.2017 06:00:00 10,0 8,4 16 9 - - W 1019,1 17 -
20.11.2017 05:00:00 10,1 7,8 22 12 - - W 1019,5 30 0,0
20.11.2017 04:00:00 9,8 8,0 16 9 - - W 1020,0 21 0,0
20.11.2017 03:00:00 9,7 7,8 15 8 - - NW 1020,5 21 0,0
20.11.2017 02:00:00 9,6 7,7 16 9 - - NNW 1021,0 22 0,0
20.11.2017 01:00:00 9,2 7,8 13 7 - - SSW 1021,6 28 0,0
20.11.2017 00:00:00 9,3 8,0 13 7 - - W 1022,3 30 0,0
19.11.2017 23:00:00 9,2 8,6 13 7 - - WSW 1022,6 16 0,0
19.11.2017 22:00:00 8,9 8,9 9 5 - - SSW 1023,3 3,3 0,0
19.11.2017 21:00:00 8,4 8,4 4 2 - - SE 1023,5 0,1 0,0
19.11.2017 20:00:00 8,6 8,6 5 3 - - S 1023,8 0,2 0,0
19.11.2017 19:00:00 8,4 8,3 5 3 - - SSE 1023,9 1,6 0,2
19.11.2017 18:00:00 8,4 8,3 8 4 - - ESE 1023,9 1,7 0,0
19.11.2017 17:00:00 8,4 8,2 9 5 - - ESE 1023,9 2,1 0,2
19.11.2017 16:00:00 8,8 8,0 9 5 - - SE 1024,2 5 0,0
19.11.2017 15:00:00 9,4 7,9 11 6 - - SSE 1024,0 40 0,0
19.11.2017 14:00:00 9,4 7,9 11 6 - - S 1024,5 30 0,0
19.11.2017 13:00:00 9,3 7,7 8 4 - - S 1024,5 30 0,0
19.11.2017 12:00:00 9,3 7,4 8 4 - - S 1024,9 30 0,0
19.11.2017 11:00:00 9,0 7,8 9 5 - - SSE 1024,9 23 0,0
19.11.2017 10:00:00 8,3 7,3 8 4 - - SE 1024,9 24 0,0
19.11.2017 09:00:00 8,2 7,2 4 2 - - SE 1024,8 26 0,0
19.11.2017 08:00:00 7,7 6,8 4 2 - - NE 1024,8 13 -
19.11.2017 07:00:00 7,8 6,7 4 2 - - NE 1024,2 30 0,0
19.11.2017 06:00:00 7,9 6,9 9 5 - - NE 1024,0 35 0,0
19.11.2017 05:00:00 7,8 7,4 8 4 - - N 1023,8 27 0,0
19.11.2017 04:00:00 8,1 7,9 8 4 - - NNE 1023,4 13 0,0
19.11.2017 03:00:00 9,0 8,9 8 4 - - N 1023,5 5 0,0
19.11.2017 02:00:00 9,6 9,5 9 5 - - NNW 1023,2 4,7 0,0
19.11.2017 01:00:00 10,2 10,1 9 5 - - NNW 1023,3 7 0,4

tt = Température de l'air
td = dewpoint
ff = Vitesse du vent
fx = gusts
dd = Direction du vent
ppp = reduced air pressure
vv = visibility
rr = Quantités de précipitations

stations d'obs. à proximité